Location: Bratislava
(48.1500°N, 17.1170°E)
Time: 11:03:48
(UTC+01:00)

N. Korean satellite - Pass Details

Date: 29 January 2019
Orbit: 456 x 510 km, 97.2° (Epoch: 21 February)

Event Time Altitude Azimuth Distance (km) Brightness Sun altitude
Rises 17:28:28 0° 178° (S) 2,598 10.5 -7.4°
Reaches altitude 10° 17:30:34 10° 183° (S) 1,722 9.6 -7.7°
Maximum altitude 17:34:13 52° 261° (W) 642 7.7 -8.3°
Drops below altitude 10° 17:37:53 10° 338° (NNW) 1,742 9.4 -8.9°
Sets 17:40:02 0° 344° (NNW) 2,632 10.3 -9.2°
